Hlavní strana
METAR-TAF:

METAR-TAF

Letiště :

Ibagué, Kolumbie

zeměpisná šířka: 04-26N, zeměpisná délka: 075-09W, výška: 928 m

Aktuální stav počasí

Zpráva byla vytvořena před 15 hodinami a 53 minutami, v 22:00 UTC
Jižní vítr 6 kt
Teplota 30°C
Vlhkost vzduchu 52%
Tlak 1015 hPa
Viditelnost 10 km a více
Skoro jasno ve výšce 3000 ft
Oblačno až skoro zataženo ve výšce 20000 ft

METAR: SKIB 252200Z 18006KT 9999 FEW030 BKN200 30/19 A2998

Čas: 08:53 (13:53 UTC)


TAF: chybějící

Stav a předpovědi počasí z více než 4 000 letišť (zprávy METAR a TAF).

Červené a žluté tečky na mapě představují dostupné meteorologické stanice.

Když kurzor umístíte na tečku, zobrazí se název stanice.

Pak kliknutím zobrazíte stav a předpověď počasí.

Chcete-li změnit mapu, kliknutím na zelené tlačítko se znaménkem +mapu přiblížíte, kliknutím na zelené tlačítko se znaménkem – mapu oddálíte a kliknutím na zelené šipky přejdete na sousední mapy.


METAR-TAF: